Simultaneous Nadir Overpasses (SNOs) Predictions

Prediction of SNOs between LANDSAT-8 and METOP-A Satellite Orbit:

Table of predicted SNOs for the next 14.0 days since TLE Epoch: 3/17/2017
Index Date (LANDSAT-8) Time (LANDSAT-8) Lat,Lon (LANDSAT-8) SZA (LANDSAT-8 ) Date (METOP-A) Time (METOP-A) Lat,Lon (METOP-A) SZA (METOP-A ) Distance(km) Time Diff (sec)
1 03/19/2017 20:54:32 -81.13, 85.95 96.83 03/19/2017 20:54:16 -81.14, 85.93 96.84 0.65 16
2 03/19/2017 21:43:57 81.16,-105.95 83.23 03/19/2017 21:44:55 81.16,-106.14 83.23 3.28 58
3 03/22/2017 16:28:44 -81.14, 152.49 97.91 03/22/2017 16:28:37 -81.14, 152.49 97.91 0.38 7
4 03/22/2017 17:18:09 81.17, -39.43 82.15 03/22/2017 17:19:16 81.16, -39.62 82.15 3.29 67
5 03/25/2017 11:13:31 81.12, 51.03 80.99 03/25/2017 11:12:20 81.12, 50.87 80.95 2.79 71
6
